EW4994 Weather Reports


Display with metric or nautical units.
time (UTC)temp
F
wind
direction
speed
MPH
gust
MPH
rain 1hr
in
rain 24hr
in
rain mn
in
humidity
%
barometer
mb
20260906011548 88 38 0.0 0.0 0.00 0.00 0.00 66 1009.2
20260906010043 88 38 0.0 0.0 0.00 0.00 0.00 65 1009.0
20260906004543 90 24 0.0 0.0 0.00 0.00 0.00 65 1009.0
20260906003044 90 23 0.0 0.0 0.00 0.00 0.00 64 1008.9
20260906001541 91 26 0.0 0.0 0.00 0.00 0.00 64 1009.1
20260906000046 92 145 0.0 0.0 0.00 0.00 0.00 64 1009.1
20260905234540 93 145 0.0 2.0 0.00 0.00 0.00 63 1009.2
20260905233043 93 145 0.0 0.0 0.00 0.00 0.00 59 1009.2
20260905231539 94 145 0.0 2.0 0.00 0.00 0.00 57 1009.0
20260905230041 95 145 0.0 3.0 0.00 0.00 0.00 54 1009.0
20260905224538 97 145 0.0 0.0 0.00 0.00 0.00 51 1009.0
20260905223042 97 145 1.0 4.0 0.00 0.00 0.00 48 1009.1
20260905221536 98 145 2.0 5.0 0.00 0.00 0.00 46 1009.1
20260905220033 98 147 0.0 5.0 0.00 0.00 0.00 47 1009.3
20260905214532 97 166 2.0 5.0 0.00 0.00 0.00 46 1009.4
20260905213031 98 167 3.0 5.0 0.00 0.00 0.00 46 1009.3
20260905211530 98 178 2.0 5.0 0.00 0.00 0.00 45 1009.4
20260905210045 97 161 0.0 0.0 0.00 0.00 0.00 48 1009.5
20260905204534 97 146 1.0 7.0 0.00 0.00 0.00 47 1009.7
20260905203027 99 144 2.0 7.0 0.00 0.00 0.00 45 1009.7
20260905201525 99 123 3.0 7.0 0.00 0.00 0.00 45 1010.1
20260905200024 100 190 2.0 8.0 0.00 0.00 0.00 43 1010.2
20260905194519 99 195 3.0 6.0 0.00 0.00 0.00 45 1010.5
20260905193017 98 205 5.0 7.0 0.00 0.00 0.00 45 1010.7
20260905191515 98 170 3.0 6.0 0.00 0.00 0.00 46 1011.0
20260905190018 98 127 4.0 9.0 0.00 0.00 0.00 47 1011.1
20260905184515 99 109 4.0 9.0 0.00 0.00 0.00 47 1011.2
20260905183007 98 83 1.0 6.0 0.00 0.00 0.00 49 1011.6
20260905181505 97 94 3.0 7.0 0.00 0.00 0.00 52 1011.6
20260905180004 97 148 2.0 8.0 0.00 0.00 0.00 51 1011.7
20260905174503 97 127 3.0 8.0 0.00 0.00 0.00 51 1011.8
20260905173100 97 126 4.0 9.0 0.00 0.00 0.00 50 1011.9
20260905171634 96 128 4.0 11.0 0.00 0.00 0.00 53 1012.1
20260905170105 95 135 4.0 8.0 0.00 0.00 0.00 56 1012.3
20260905164601 95 127 5.0 8.0 0.00 0.00 0.00 56 1012.4
20260905163057 96 131 3.0 8.0 0.00 0.00 0.00 57 1012.7
20260905161552 94 58 1.0 7.0 0.00 0.00 0.00 62 1012.7
20260905160049 93 135 2.0 5.0 0.00 0.00 0.00 65 1012.8
20260905154555 92 106 3.0 7.0 0.00 0.00 0.00 68 1012.8
20260905153039 91 110 3.0 6.0 0.00 0.00 0.00 69 1012.8
20260905151535 90 5 2.0 8.0 0.00 0.00 0.00 68 1012.8
20260905150040 89 321 3.0 8.0 0.00 0.00 0.00 69 1012.8
20260905144534 88 17 0.0 6.0 0.00 0.00 0.00 72 1012.8
20260905143026 87 162 0.0 5.0 0.00 0.00 0.00 77 1012.8
20260905141522 86 167 0.0 5.0 0.00 0.00 0.00 79 1012.8
20260905140019 85 167 0.0 3.0 0.00 0.00 0.00 81 1012.8
20260905134517 83 173 0.0 0.0 0.00 0.00 0.00 83 1012.7
20260905133012 82 148 0.0 0.0 0.00 0.00 0.00 86 1012.7
20260905131526 81 129 2.0 7.0 0.00 0.00 0.00 87 1012.7
20260905130008 80 153 2.0 6.0 0.00 0.00 0.00 88 1012.4
20260905124507 80 134 0.0 0.0 0.00 0.00 0.00 89 1012.5
20260905123007 79 133 0.0 7.0 0.00 0.00 0.00 90 1012.3
20260905121507 78 142 4.0 8.0 0.00 0.00 0.00 90 1012.2
20260905120104 78 118 5.0 8.0 0.00 0.00 0.00 91 1012.2
20260905114507 78 144 2.0 4.0 0.00 0.00 0.00 92 1012.1
20260905113059 78 144 0.0 0.0 0.00 0.00 0.00 92 1012.0
20260905111626 78 144 0.0 1.0 0.00 0.00 0.00 92 1011.9
20260905110106 78 144 0.0 0.0 0.00 0.00 0.00 92 1011.8
20260905104614 78 144 0.0 0.0 0.00 0.00 0.00 91 1011.6
20260905103054 78 144 0.0 0.0 0.00 0.00 0.00 92 1011.6
20260905101555 78 144 0.0 1.0 0.00 0.00 0.00 92 1011.6
20260905100051 78 144 1.0 7.0 0.00 0.00 0.00 93 1011.5
20260905094659 77 129 0.0 0.0 0.00 0.00 0.00 92 1011.7
20260905093055 76 129 0.0 0.0 0.00 0.00 0.00 92 1011.6
20260905091552 76 129 0.0 0.0 0.00 0.00 0.00 91 1011.5
20260905090046 77 129 0.0 0.0 0.00 0.00 0.00 91 1011.5
20260905084556 78 129 0.0 0.0 0.00 0.00 0.00 89 1011.5
20260905083141 80 129 0.0 0.0 0.00 0.00 0.00 90 1011.5
20260905081542 80 129 0.0 0.0 0.00 0.00 0.00 90 1011.5
20260905080038 80 129 0.0 0.0 0.00 0.00 0.00 90 1011.6
20260905074536 79 123 0.0 0.0 0.00 0.00 0.00 90 1011.7
20260905073035 79 123 0.0 0.0 0.00 0.00 0.00 89 1011.7
20260905071535 80 123 0.0 0.0 0.00 0.00 0.00 89 1011.7
20260905070032 80 123 0.0 0.0 0.00 0.00 0.00 88 1011.9
20260905064530 80 123 0.0 0.0 0.00 0.00 0.00 88 1011.8
20260905063030 80 123 0.0 0.0 0.00 0.00 0.00 88 1011.9
20260905061540 80 123 0.0 0.0 0.00 0.00 0.00 88 1011.9
20260905060047 80 123 0.0 0.0 0.00 0.00 0.00 88 1012.1
20260905054534 80 123 0.0 0.0 0.00 0.00 0.00 87 1012.0
20260905053022 81 123 0.0 0.0 0.00 0.00 0.00 86 1012.0
20260905051529 82 123 0.0 0.0 0.00 0.00 0.00 85 1012.1
20260905050017 82 123 0.0 0.0 0.00 0.00 0.00 84 1012.1
20260905044514 83 123 0.0 0.0 0.00 0.00 0.00 83 1012.1
20260905043018 83 123 0.0 0.0 0.00 0.00 0.00 83 1012.2
20260905041514 83 123 0.0 0.0 0.00 0.00 0.00 81 1012.3
20260905040017 83 123 0.0 3.0 0.00 0.00 0.00 81 1012.2
20260905034514 84 124 0.0 1.0 0.00 0.00 0.00 83 1012.2
20260905033012 84 124 0.0 0.0 0.00 0.00 0.00 82 1012.1
20260905031516 84 126 0.0 3.0 0.00 0.00 0.00 82 1012.4
20260905030011 84 126 0.0 0.0 0.00 0.00 0.00 82 1012.2
20260905024518 84 126 0.0 0.0 0.00 0.00 0.00 80 1012.2
20260905023017 85 126 0.0 0.0 0.00 0.00 0.00 79 1012.0
20260905021510 85 126 0.0 0.0 0.00 0.00 0.00 77 1012.0
20260905020008 86 126 0.0 2.0 0.00 0.00 0.00 75 1012.0
20260905014609 87 126 0.0 4.0 0.00 0.00 0.00 74 1011.9
20260905013115 88 126 0.0 3.0 0.00 0.00 0.00 70 1011.7